West Chatham, MA

1:10 AM EST on February 28, 2017 (GMT -0500)
Chatham Municipal

Weather History for KCQX - May, 2014

Change the Weather History Date:

Sunday, May 18, 2014

  Actual Average Record
Temperature  
Mean Temperature 56 °F -  
Max Temperature 64 °F 59 °F 83 °F (1977)
Min Temperature 48 °F 45 °F 41 °F (1981)
Degree Days  
Heating Degree Days 9    
Growing Degree Days 6 (Base 50)    
Moisture  
Dew Point 47 °F    
Average Humidity 71    
Maximum Humidity 89    
Minimum Humidity 52    
Precipitation  
Precipitation 0.00 in - - ()
Sea Level Pressure  
Sea Level Pressure 30.06 in    
Wind  
Wind Speed 5 mph (NNW)    
Max Wind Speed 12 mph    
Max Gust Speed 21 mph    
Visibility 10 miles    
Events      
Averages and records for this station are not official NWS values.
T = Trace of Precipitation, MM = Missing Value Source: NWS Daily Summary

Daily Weather History Graph

Daily Weather History Graph

Search for Another Location

Airport or City:

Trip Planner

Search our weather history database for the weather conditions in past years. The results will help you decide how hot, cold, wet, or windy it might be!

Date:

Astronomy

May. 18, 2014 Rise Set
Actual Time 5:17 AM EDT 7:55 PM EDT
Civil Twilight 4:45 AM EDT 8:27 PM EDT
Nautical Twilight 4:05 AM EDT 9:08 PM EDT
Astronomical Twilight 3:20 AM EDT 9:53 PM EDT
Moon 11:40 PM EDT (5/18) 9:03 AM EDT (5/18)
Length of Visible Light 15h 42m
Length of Day
14h 38m
Waning Gibbous, 81% of the Moon is Illuminated
May 18
Waning Gibbous
May 21
Last Quarter
May 28
New
Jun 5
First Quarter
Jun 13
Full

Hourly Weather History & Observations

Time (EDT) Temp. Dew Point Humidity Pressure Visibility Wind Dir Wind Speed Gust Speed Precip Events Conditions
12:52 AM 48.9 °F 45.0 °F 86% 30.05 in 10.0 mi Calm Calm - N/A   Clear
1:52 AM 54.0 °F 44.1 °F 69% 30.05 in 10.0 mi Variable 3.5 mph - N/A   Clear
2:52 AM 54.0 °F 42.1 °F 64% 30.05 in 10.0 mi Variable 3.5 mph - N/A   Clear
3:52 AM 53.1 °F 41.0 °F 64% 30.06 in 10.0 mi NW 4.6 mph - N/A   Clear
4:52 AM 52.0 °F 42.1 °F 69% 30.06 in 10.0 mi NNW 4.6 mph - N/A   Clear
5:52 AM 52.0 °F 42.1 °F 69% 30.08 in 10.0 mi Variable 5.8 mph - N/A   Clear
6:52 AM 55.0 °F 42.1 °F 62% 30.08 in 10.0 mi Variable 6.9 mph 17.3 mph N/A   Clear
7:52 AM 55.9 °F 44.1 °F 64% 30.08 in 10.0 mi NW 8.1 mph 17.3 mph N/A   Clear
8:52 AM 57.0 °F 46.9 °F 69% 30.08 in 10.0 mi NNW 8.1 mph - N/A   Clear
9:39 AM 55.9 °F 50.0 °F 80% 30.08 in 10.0 mi NW 9.2 mph 18.4 mph N/A   Mostly Cloudy
9:52 AM 55.0 °F 50.0 °F 83% 30.08 in 10.0 mi NW 9.2 mph 20.7 mph N/A   Overcast
10:52 AM 57.9 °F 50.0 °F 75% 30.09 in 10.0 mi NNW 10.4 mph 18.4 mph N/A   Overcast
11:00 AM 57.9 °F 50.0 °F 75% 30.08 in 10.0 mi Variable 5.8 mph 18.4 mph N/A   Overcast
11:23 AM 59.0 °F 50.0 °F 72% 30.08 in 10.0 mi NNW 11.5 mph 18.4 mph N/A   Overcast
11:52 AM 60.1 °F 48.9 °F 67% 30.08 in 10.0 mi NW 10.4 mph 19.6 mph N/A   Mostly Cloudy
12:22 PM 60.1 °F 48.0 °F 64% 30.07 in 10.0 mi Variable 6.9 mph 19.6 mph N/A   Scattered Clouds
12:52 PM 61.0 °F 48.9 °F 64% 30.07 in 10.0 mi North 8.1 mph 19.6 mph N/A   Partly Cloudy
1:52 PM 61.0 °F 48.0 °F 62% 30.06 in 10.0 mi North 10.4 mph 20.7 mph N/A   Clear
2:52 PM 63.0 °F 46.0 °F 54% 30.04 in 10.0 mi NNE 9.2 mph - N/A   Clear
3:52 PM 64.0 °F 46.0 °F 52% 30.03 in 10.0 mi Variable 5.8 mph - N/A   Clear
4:52 PM 62.1 °F 45.0 °F 53% 30.03 in 10.0 mi ENE 6.9 mph - N/A   Clear
5:52 PM 63.0 °F 45.0 °F 52% 30.03 in 10.0 mi NW 5.8 mph - N/A   Clear
6:52 PM 55.9 °F 48.0 °F 75% 30.03 in 10.0 mi SSW 6.9 mph - N/A   Clear
7:52 PM 55.0 °F 50.0 °F 83% 30.04 in 10.0 mi Calm Calm - N/A   Clear
8:52 PM 53.1 °F 48.9 °F 86% 30.04 in 10.0 mi Calm Calm - N/A   Clear
9:52 PM 50.0 °F 46.9 °F 89% 30.04 in 10.0 mi Calm Calm - N/A   Clear
10:52 PM 50.0 °F 46.9 °F 89% 30.04 in 10.0 mi WNW 4.6 mph - N/A   Clear
11:52 PM 50.0 °F 46.0 °F 86% 30.04 in 10.0 mi NW 3.5 mph - N/A   Clear